Location: Unspecified
(48.2082°N, 0.0000°E)
Time: 14:31:15
(UTC+00:00)

Altair - Pass Details

Date: 24 June 2019
Orbit: 1501 x 1683 km, 47.2° (Epoch: 19 August)

Event Time Altitude Azimuth Distance (km) Brightness Sun altitude
Rises 17:36:44 0° 197° (SSW) 4,656 10.1 21.4°
Reaches altitude 10° 17:40:19 10° 185° (S) 3,699 9.5 20.8°
Maximum altitude 17:47:41 27° 133° (SE) 2,662 8.5 19.6°
Drops below altitude 10° 17:55:15 10° 80° (E) 3,822 9.1 18.4°
Sets 17:59:00 0° 70° (ENE) 4,839 9.6 17.8°
